Regional Weather Roundup
Issued by NWS Midland/Odessa, TX

Skip options and go directly to product.
Home | Oldest Version | Next Version | Current Version | All | Text Only | Save Text | Print | Product List | Glossary On

Skip product version selection by date and time.   
973
ASUS44 KMAF 170502
RWRMAF
MIDLAND AREA WEATHER ROUNDUP
NATIONAL WEATHER SERVICE MIDLAND TX
1200 AM CDT THU APR 17 2014

...IN SOUTHWEST TEXAS AND SOUTHEAST NEW MEXICO...

CITY           SKY/WX    TMP DP  RH WIND       PRES   REMARKS
ALPINE         CLEAR     62  22  21 SW12      29.92S
ANDREWS        FAIR      59  32  36 S14G20    29.82S
ARTESIA        PTCLDY    63   3   9 SW14      29.75R
BIG SPRING     CLEAR     64  33  31 SE22      29.85S
CARLSBAD       PTCLDY    64  25  22 SE9       29.76R
DRYDEN           N/A     63  41  44 E9        29.84R
FORT STOCKTON  CLEAR     60  36  40 SE20G31   29.80S
GUAD PASS      CLEAR     65   1   8 SW7       29.90R
HOBBS          CLEAR     57  32  38 S13       29.82R
MARFA          CLEAR     55  16  21 SE3       29.92S
MIDLAND AIRPK  CLEAR     62  33  33 S13G23    29.84R
MIDLAND INTL   CLEAR     60  36  40 S21       29.84R
ODESSA         CLEAR     60  34  37 S15       29.84R
PECOS          CLEAR     62  32  33 E9        29.76R
PRESIDIO       FAIR      68  16  13 N5        29.78S
SEMINOLE       CLEAR     60  32  34 S15       29.83R
SNYDER         CLEAR     62  29  29 SE17G24   29.86S
WINK           CLEAR     62  34  35 SE20G29   29.77S
$$
...OTHER STATIONS IN TEXAS...

CITY           SKY/WX    TMP DP  RH WIND       PRES   REMARKS
ABILENE        CLEAR     60  36  40 SE12      29.90R
AMARILLO       MOCLDY    55  23  28 NE18      29.94R
AUSTIN         MOCLDY    58  49  72 S8        30.00R
BROWNSVILLE    CLOUDY    64  59  83 SE5       29.98F
CORPUS CHRISTI CLOUDY    66  56  70 SE12      29.97F
DALLAS FTW     PTCLDY    56  41  57 SE16G22   30.01R
DEL RIO        CLOUDY    67  46  47 SE10      29.87S
EL PASO        PTCLDY    75   0   5 W14G25    29.82R
HOUSTON INT    MOCLDY    56  52  86 E7        30.05S
LUBBOCK        MOCLDY    62  30  29 S25G33    29.80R
SAN ANGELO     CLEAR     59  36  42 SE5       29.89S
SAN ANTONIO    CLOUDY    61  50  67 SE13      29.99R
WACO           CLEAR     54  46  74 SE8       30.01R
WICHITA FALLS  NOT AVBL
$$
...OTHER LOCATIONS IN NEW MEXICO...

CITY           SKY/WX    TMP DP  RH WIND       PRES   REMARKS
ALAMAGORDO     CLOUDY    68   0   6 SW13      29.79S
ALBUQUERQUE    MOCLDY    60  23  24 N8        29.95R
CANNON AFB     CLOUDY    55  27  34 NE29G38   29.86R
CLOVIS         CLOUDY    55  25  30 N30       29.88S
HOLLOMAN AFB   CLOUDY    71   1   6 NW18      29.78R
ROSWELL        CLOUDY    67  14  13 N21       29.77R
RUIDOSO        CLOUDY    55   1  11 NW9       29.97R
SANTA FE       CLOUDY    53  22  29 CALM      29.98R
TRUTH OR CONSE MOCLDY    66   3   8 NW6       29.87R
TUCUMCARI      MOCLDY    56  26  31 NE28G36   29.95R
$$

USA.gov is the U.S. government's official web portal to all federal, state and local government web resources and services.